sat.trackr.live / text

‹ back to catalog

STARLINK-1185

NORAD 45087 · 2020-006AV

PAYLOAD ACTIVE UNKNOWN

§ Identity

Operator
Country
US
Launch date
2020-01-29
Launch site
AFETR
Launch vehicle
Mass (kg)
RCS (m²)

Purposes: comms

External: N2YO · Heavens-Above · Gunter

§ Orbital elements

Epoch: 2026-09-19T23:26:32.017344Z

Period
92.45 min
Inclination
53.1534°
Eccentricity
0.0001463
Mean motion
15.57554703 rev/d
Perigee alt
393.7 km
Apogee alt
395.7 km
Semi-major
6,772.9 km
B*
9.3279e-4
RAAN
37.3129°
Arg perigee
352.7813°
Mean anomaly
7.3178°
Rev number
36,715

§ Raw data

STARLINK-11851 45087U 20006AV  26262.97675946  .00070109  00000+0  93279-3 0  99922 45087  53.1534  37.3129 0001463 352.7813   7.3178 15.57554703367155

JSON: /api/v1/satellites/45087 · /tle

For live sub-satellite position, see the globe view (requires WebGL).

§ Visibility from observer

Set your observer location to see the next 7 days of passes ≥ 10°. The values pass through the URL so the page stays shareable.

No JS? Fill the form by hand. The geolocation button needs JavaScript.